www.pogodaiklimat.ru

Погода и климат >> Архив погоды >> Мьянма >> Катха


ПОГОДА в Катхе

  • Прогноз погоды в Катхе
  • Монитор погоды в Катхе

АРХИВ ПОГОДЫ в Катхе

Время (UTC), дата Ветер
(напр.,м/с)
 
Видим.   Явления Облачность Т
(С)
Тd
(С)
f
(%)
Тe
(С)
Тes
(С)
Комфортность P
(гПа)
Po
(гПа)
Тmin
(С)
Tmax
(С)
R
(мм)
R24
(мм)
S
(см)
00 12.08 ЮЗ 1 4000 м {гроза, дождь} 6/4 600 м
[Cu Sc Ac As]
+26.0 +25.3 96 +38 +38 очень
душно
1001.0 990.2 +23.5 10
03 12.08 ЮЗ 3 5000 м 8/4 600 м
[Cu Sc Ac As]
+29.2 +25.4 80 +43 +46 опасность
перегрева
1002.8 992.1
06 12.08 СВ 1 8000 м переохл. туман {снег} 9/9 600 м
[]
+31.6 +26.0 72 +47 +50 опасность
перегрева
1002.2 991.6
09 12.08 ЮЗ 2 9000 м гроза без осадков 8/5 600 м
[Cb cap Ac As]
+33.0 +25.8 66 +48 +51 опасность
перегрева
1000.4 989.8
12 12.08 штиль 0 5000 м {гроза} 9/4 600 м
[Cu Sc Ac As Ci sp]
+30.0 +26.6 82 +46 +46 опасность
перегрева
999.9 989.2 +33.5
00 13.08 штиль 0 4000 м слаб. морось {дождь} 10/6 300 м
[Cu Sc Ac As]
+25.5 +25.5 100 +37 +37 очень
душно
1004.0 993.1 +23.3 15
03 13.08 ЮВ 1 4000 м слаб. морось {дождь} 10/6 300 м
[Cu Sc Ac As]
+25.5 +25.5 100 +37 +39 очень
душно
1006.3 995.4
06 13.08 СВ 1 6000 м слаб. морось {дождь} 10/6 300 м
[Cu Sc Ac As]
+28.5 +25.5 84 +42 +45 опасность
перегрева
1006.0 995.2
09 13.08 СЗ 1 8000 м {морось} 10/5 600 м
[Cu Sc Ac As]
+28.1 +26.8 93 +44 +46 опасность
перегрева
1004.0 993.2
12 13.08 штиль 0 5000 м {морось} 8/4 600 м
[Cu Sc Ac As]
+28.0 +26.8 93 +44 +44 опасность
перегрева
1003.3 992.5 +29.0 7
03 14.08 ЮВ 1 6000 м слаб. морось {дождь} 10/6 300 м
[Cu Sc Ac As]
+26.1 +26.1 100 +39 +41 очень
душно
1007.4 996.5
06 14.08 ЮЗ 1 8000 м {дождь, морось} 9/5 600 м
[Cu Sc Ac As]
+29.5 +25.6 80 +44 +49 опасность
перегрева
1006.2 995.5
09 14.08 ЮЗ 3 9000 м 8/4 600 м
[Cu Sc Ac As]
+31.6 +27.4 78 +50 +53 опасность
перегрева
1003.8 993.2
12 14.08 штиль 0 5000 м 9/4 600 м
[Cu Sc Ac As Ci sp]
+29.5 +27.8 91 +49 +49 опасность
перегрева
1002.8 992.1 +32.5 4
03 15.08 ЮЗ 1 6000 м слаб. морось 10/6 300 м
[Cu Sc Ac As]
+27.0 +26.3 96 +41 +43 опасность
перегрева
1006.5 995.7
06 15.08 ЮВ 2 8000 м {морось} 10/5 600 м
[Cu Sc Ac As]
+28.5 +27.1 92 +45 +48 опасность
перегрева
1005.8 995.0
09 15.08 ЮЗ 3 9000 м 9/5 600 м
[Cu Sc Ac As]
+31.5 +27.4 79 +50 +52 опасность
перегрева
1002.0 991.4
12 15.08 штиль 0 5000 м 10/5 600 м
[Cu Sc Ac As]
+29.5 +27.0 86 +46 +46 опасность
перегрева
1002.1 991.4 +32.0 4
00 16.08 штиль 0 4000 м гроза, ливневой дождь 10/6 300 м
[Cb cap Ac As]
+26.6 +26.6 100 +41 +41 опасность
перегрева
1003.1 992.3 +24.5 6
03 16.08 ЮВ 1 5000 м слаб. морось {гроза} 9/6 300 м
[Cu Sc Ac As]
+27.5 +26.9 97 +43 +46 опасность
перегрева
1004.5 993.7
06 16.08 ЮЗ 2 8000 м {гроза, морось} 8/4 600 м
[Cu Sc Ac As]
+31.0 +26.7 78 +48 +55 опасность
перегрева
1003.2 992.5
09 16.08 ЮВ 1 8000 м в посл. час дождь 9/5 600 м
[Cu Sc Ac As]
+28.0 +27.4 97 +45 +47 опасность
перегрева
1000.9 990.2
12 16.08 штиль 0 4000 м {дождь} 8/4 600 м
[Cu Sc Ac As]
+28.5 +27.1 92 +45 +45 опасность
перегрева
1000.1 989.4 +32.3 18
00 17.08 штиль 0 4000 м 8/4 600 м
[Cu Sc Ac As]
+26.0 +25.8 99 +38 +39 очень
душно
1003.2 992.4 +23.5
03 17.08 ЮВ 2 6000 м 4/3 1000 м
[Cu med, cong Ac lent]
+31.0 +26.7 78 +48 +56 опасность
перегрева
1004.1 993.4
06 17.08 ЮЗ 2 10 км 4/3 1000 м
[Cu med, cong Ac lent]
+32.5 +27.0 73 +51 +64 опасность
перегрева
1002.8 992.2
09 17.08 ЮВ 1 10 км 3/3 1000 м
[Cu med, cong Ac lent]
+34.0 +27.0 67 +52 +60 опасность
перегрева
1000.3 989.8
12 17.08 штиль 0 4000 м 3/1 1000 м
[Cu hum Ac lent]
+32.0 +28.1 80 +53 +53 опасность
перегрева
999.7 989.1 +34.6
00 18.08 ЮЗ 1 3000 м слаб. морось 10/5 300 м
[Cu Sc Ac As]
+26.9 +25.3 91 +39 +39 очень
душно
1004.9 994.1 +24.7 0.0
03 18.08 ЮЗ 1 5000 м {морось} 4/1 600 м
[Cu hum Ac lent Ci sp]
+30.0 +23.9 70 +41 +53 опасность
перегрева
1006.9 996.2
06 18.08 ЮЗ 3 7000 м {морось} 8/4 600 м
[Cu Sc Ac As]
+33.0 +25.1 63 +47 +52 опасность
перегрева
1005.6 995.0
09 18.08 ЮЗ 1 10 км 5/3 1000 м
[Cu med, cong Ac lent]
+33.5 +25.8 64 +49 +55 опасность
перегрева
1002.8 992.2
12 18.08 ЮЗ 1 5000 м 3/1 1000 м
[Cu hum Ac lent]
+31.5 +26.6 75 +48 +48 опасность
перегрева
1002.4 991.8 +33.9 0.0

 

Местоположение метеостанции Катха (Мьянма): широта 24.17 долгота 96.33 высота над уровнем моря 95 м.

В архиве по умолчанию представлена погода в Катхе за последнюю неделю. Архивные данные за месяц целиком и за предыдущие месяцы, начиная с января 2011 года, Вы можете получить, выбрав интересующий диапазон дат из раскрывающегося списка и нажав кнопку "Ввод!".


*Определитесь, кто Вы:
робот инопланетянин человек

Внимание! Время в таблицах - всемирное. Для получения местного времени необходимо прибавить поправку, которая равна 6.5 ч.

Смотрите также архив погоды в соседних городах и на ближайших метеорологических станциях:

Погода в Банмо (Мьянма) (89 км)
Погода в Могоу (Мьянма) (140 км)
Погода в Жуйли (Юньнань, Китай) (153 км)
Погода в Хомалине (Мьянма) (163 км)
Погода в Мьичине (Мьянма) (172 км)
Погода в Шуэбо (Мьянма) (187 км)
Погода в Лашо (Мьянма) (200 км)
Погода в Молейке (Мьянма) (203 км)
Погода в Хкамти (Мьянма) (213 км)
Погода в Калеве (Мьянма) (233 км)

Пояснения к столбцам:

Ветер - указаны скорость ветра в м/с - средняя за 10 мин, порывы в срок и между сроками (в фигурных скобках) и направление, откуда дует ветер: С - северный, СВ - северо-восточный, В - восточный, ЮВ - юго-восточный, Ю - южный, ЮЗ - юго-западный, З - западный, СЗ - северо-западный.
Видимость - горизонтальная дальность видимости в метрах или километрах. При видимости от 1 до 10 км при отсутствии осадков обычно наблюдается дымка, при ухудшении видимости до 1 км и менее - туман. В сухую погоду видимость может ухудшаться дымом, пылью или мглою.
Явления - указаны атмосферные явления, наблюдавшиеся в срок или в последний час перед сроком; фигурными скобками обозначены явления, наблюдавшиеся между сроками (за 1-3 часа до срока); квадратными скобками обозначены град или гололедные отложения с указанием их диаметра в мм.
Облачность - указаны через наклонную черту общая и нижняя облачность в баллах и высота нижней границы облаков в метрах; квадратными скобками обозначены формы облаков: Ci - перистые, Cs - перисто-слоистые, Cc - перисто-кучевые, Ac - высококучевые, As - высокослоистые, Sc - слоисто-кучевые, Ns - слоисто-дождевые, Cu - кучевые, Cb - кучево-дождевые. Подробнее классификацию облаков см. в Атласе облаков (PDF).
T - Температура воздуха - температура, измеренная на высоте 2 м над землей.
Td - Температура точки росы - температура, при понижении до которой содержащийся в воздухе водяной пар достигнет насыщения.
f - Относительная влажность воздуха - влажноcть воздуха, измеренная на высоте 2 м над землей.
Te - Эффективная температура - температура, которую ощущает одетый по сезону человек в тени. Характеристика душности погоды. При расчете учитывается влияние влажности воздуха и скорости ветра на теплоощущения человека.
Tes - Эффективная температура на солнце - температура, которую ощущает человек, с поправкой на солнечный нагрев. Характеристика знойности погоды. Зависит от высоты солнца над горизонтом, облачности и скорости ветра. Ночью, в пасмурную погоду, а также при ветре 12 м/с и более поправка равна нулю.
P - Атмосферное давление - приведенное к уровню моря атмосферное давление.
Po - Атмосферное давление - измеренное на уровне метеостанции атмосферное давление.
Tmin - Минимальная температура - минимум температуры воздуха на высоте 2 м над землей.
Tmax - Максимальная температура - максимум температуры воздуха на высоте 2 м над землей.
R - Количество осадков - Количество выпавших осадков за период времени, мм. При наведении курсора мыши на число - период времени, за который выпало указанное количество осадков.
R24 - Количество осадков - Количество выпавших осадков за 24 часа, мм.
S - Снежный покров - Высота снежного покрова, см. При наведении курсора мыши на число - состояние снежного покрова и степень покрытия местности в баллах.